CDT,Max TemperatureF,Mean TemperatureF,Min TemperatureF,Max Dew PointF,MeanDew PointF,Min DewpointF,Max Humidity, Mean Humidity, Min Humidity, Max Sea Level PressureIn, Mean Sea Level PressureIn, Min Sea Level PressureIn, Max VisibilityMiles, Mean VisibilityMiles, Min VisibilityMiles, Max Wind SpeedMPH, Mean Wind SpeedMPH, Max Gust SpeedMPH,PrecipitationIn, CloudCover, Events, WindDirDegrees
2011-10-1,68,55,42,41,30,10,87,45,11,30.35,30.28,30.18,10,10,10,10,5,,0.00,0,,6
2011-10-2,73,54,35,41,28,9,93,50,8,30.33,30.28,30.19,10,10,10,7,1,,0.00,0,,283
2011-10-3,80,60,41,43,25,-8,87,43,4,30.28,30.23,30.19,10,10,7,5,1,,0.00,0,,306
2011-10-4,84,64,44,45,31,9,87,45,6,30.31,30.25,30.20,10,10,10,8,3,,0.00,0,,203
2011-10-5,78,60,42,46,43,39,93,56,24,30.27,30.21,30.15,10,10,7,13,4,20,0.00,0,,172
2011-10-6,80,61,42,52,47,41,100,65,30,30.24,30.18,30.13,10,10,5,17,3,20,0.00,0,,144
2011-10-7,80,66,53,55,51,46,94,61,32,30.27,30.21,30.18,10,10,7,17,8,26,0.00,0,,152
2011-10-8,78,64,51,55,51,46,94,63,32,30.30,30.24,30.21,10,10,7,16,7,23,0.00,0,,151
2011-10-9,78,62,46,54,50,45,100,67,32,30.32,30.26,30.17,10,9,0,16,4,22,0.00,0,Fog,134
2011-10-10,75,60,44,54,50,43,100,68,44,30.18,30.11,30.03,10,10,5,13,3,18,0.00,0,,155
2011-10-11,77,64,51,59,55,50,100,74,44,30.02,29.97,29.88,10,9,5,10,2,16,0.00,3,Rain,158
2011-10-12,68,64,59,61,58,54,100,87,73,29.87,29.78,29.66,10,9,3,10,3,,0.00,5,Rain-Thunderstorm,163
2011-10-13,68,60,53,57,51,39,100,75,35,29.68,29.65,29.62,10,10,3,21,8,28,0.00,5,Rain,294
2011-10-14,64,55,46,41,36,32,67,51,32,29.88,29.80,29.72,10,10,10,24,9,32,0.00,0,,278
2011-10-15,64,52,41,37,34,32,76,54,30,30.09,30.01,29.94,10,10,10,15,7,23,0.00,0,,261
2011-10-16,69,58,48,50,41,30,71,52,38,29.97,29.88,29.82,10,10,10,18,7,25,0.00,0,,263
2011-10-17,53,42,32,43,35,28,100,69,38,30.03,29.99,29.94,10,10,4,7,3,,0.00,2,Rain,274
2011-10-18,48,45,42,43,39,34,100,81,58,29.93,29.88,29.86,10,10,10,13,7,18,0.00,3,,302
2011-10-19,46,42,39,37,35,32,93,75,57,29.87,29.82,29.78,10,10,10,26,14,36,0.00,8,Rain,327
2011-10-20,50,42,35,32,32,32,87,67,50,29.96,29.85,29.79,10,10,10,21,14,29,0.00,4,,297
2011-10-21,57,44,32,34,31,28,93,61,36,30.16,30.11,30.02,10,10,10,12,6,18,0.00,0,,269
2011-10-22,68,50,33,41,35,32,93,62,30,30.11,30.08,30.03,10,10,10,10,3,,0.00,1,,223
2011-10-23,71,58,46,46,44,41,100,66,33,30.03,30.00,29.92,10,10,7,10,3,,0.00,4,Rain,214
2011-10-24,69,56,42,46,41,34,87,58,28,30.18,30.09,29.94,10,10,7,13,6,,0.00,0,,268
2011-10-25,78,64,51,54,47,37,82,54,29,30.08,29.92,29.74,10,10,10,28,12,36,0.00,0,,186
2011-10-26,69,56,44,54,46,41,100,83,56,30.00,29.91,29.79,10,7,3,16,9,22,0.00,6,Rain,325
2011-10-27,51,45,39,41,36,32,93,73,47,30.13,30.06,30.00,10,10,7,12,7,17,0.00,3,Rain,335
2011-10-28,55,42,28,34,28,23,100,67,29,30.21,30.16,30.08,10,10,10,10,3,,0.00,1,,266
2011-10-29,55,44,33,32,25,19,87,51,25,30.18,30.12,30.07,10,10,10,12,5,18,0.00,0,,263
2011-10-30,59,49,39,41,33,27,71,56,42,30.07,30.02,29.95,10,10,7,20,9,26,0.00,3,Rain,191
2011-10-31,53,42,32,32,30,28,87,62,38,30.14,30.08,30.03,10,10,10,13,4,16,0.00,0,,267